This is the latest recevied weather packets stored in our database for station/object Wangen. If no packets are shown the sender has not sent any weather packets the latest 10 day(s).
| Time | Temp. | Humidity | Pressure | Rain* | Wind** | Luminosity | Snow |
|---|---|---|---|---|---|---|---|
| 1778131931 | 8.89° C | 94% | 1012.3 hPa | 0.51 mm | - | - | - |
| 1778130133 | 8.33° C | 94% | 1012 hPa | 0.25 mm | - | - | - |
| 1778128331 | 8.33° C | 94% | 1011.6 hPa | 0 mm | - | - | - |
| 1778126536 | 8.33° C | 94% | 1011.3 hPa | 0 mm | - | - | - |
| 1778124731 | 8.33° C | 94% | 1011.1 hPa | 0 mm | - | - | - |
| 1778122932 | 8.33° C | 95% | 1011 hPa | 0 mm | - | - | - |
| 1778121132 | 8.33° C | 94% | 1011 hPa | 0 mm | - | - | - |
| 1778119332 | 7.78° C | 94% | 1010.9 hPa | 0 mm | - | - | - |
| 1778117533 | 7.78° C | 94% | 1010.6 hPa | 0 mm | - | - | - |
| 1778115731 | 7.78° C | 94% | 1010.6 hPa | 0 mm | - | - | - |
| 1778113929 | 7.78° C | 94% | 1010.3 hPa | 0 mm | - | - | - |
| 1778112129 | 7.78° C | 93% | 1010.4 hPa | 0 mm | - | - | - |
| 1778110329 | 7.78° C | 93% | 1010.4 hPa | 0 mm | - | - | - |
| 1778108530 | 8.33° C | 93% | 1010.3 hPa | 0 mm | - | - | - |
| 1778106730 | 8.89° C | 92% | 1010.2 hPa | 0 mm | - | - | - |
| 1778103130 | 8.89° C | 92% | 1010.1 hPa | 0.51 mm | - | - | - |
| 1778101330 | 8.89° C | 92% | 1009.9 hPa | 0.51 mm | - | - | - |
| 1778099531 | 9.44° C | 91% | 1009.6 hPa | 0.51 mm | - | - | - |
| 1778097730 | 9.44° C | 91% | 1009.6 hPa | 0.51 mm | - | - | - |
| 1778095935 | 10° C | 91% | 1009.2 hPa | 0.51 mm | - | - | - |
| 1778094131 | 10° C | 91% | 1008.7 hPa | 0.51 mm | - | - | - |
| 1778092330 | 10.56° C | 91% | 1008.2 hPa | 0.51 mm | - | - | - |
| 1778090536 | 10.56° C | 92% | 1008.2 hPa | 0.51 mm | - | - | - |
| 1778088730 | 10.56° C | 92% | 1008 hPa | 0.51 mm | - | - | - |
| 1778086935 | 10.56° C | 92% | 1007.6 hPa | 0.51 mm | - | - | - |
* Rain since midnight (hover to see other rain measurements)
** Current wind speed in m/s (hover to see current wind gust speed)